Year,Month,Day,Hour,Minute,Value (Times are PST for temperature in C)
2008,12,22,00,00,-1.10
2008,12,22,00,01,-1.10
2008,12,22,00,02,-1.10
2008,12,22,00,03,-1.10
2008,12,22,00,04,-1.00
2008,12,22,00,05,-1.00
2008,12,22,00,06,-0.90
2008,12,22,00,07,-0.90
2008,12,22,00,08,-0.90
2008,12,22,00,09,-0.90
2008,12,22,00,10,-0.90
2008,12,22,00,11,-0.80
2008,12,22,00,12,-0.80
2008,12,22,00,13,-0.80
2008,12,22,00,14,-0.80
2008,12,22,00,15,-0.80
2008,12,22,00,16,-0.70
2008,12,22,00,17,-0.70
2008,12,22,00,18,-0.70
2008,12,22,00,19,-0.70
2008,12,22,00,20,-0.70
2008,12,22,00,21,-0.70
2008,12,22,00,22,-0.70
2008,12,22,00,23,-0.60
2008,12,22,00,24,-0.60
2008,12,22,00,25,-0.60
2008,12,22,00,26,-0.60
2008,12,22,00,27,-0.60
2008,12,22,00,28,-0.60
2008,12,22,00,29,-0.60
2008,12,22,00,30,-0.60
2008,12,22,00,31,-0.60
2008,12,22,00,32,-0.60
2008,12,22,00,33,-0.60
2008,12,22,00,34,-0.60
2008,12,22,00,35,-0.50
2008,12,22,00,36,-0.50
2008,12,22,00,37,-0.50
2008,12,22,00,38,-0.50
2008,12,22,00,39,-0.50
2008,12,22,00,40,-0.50
2008,12,22,00,41,-0.50
2008,12,22,00,42,-0.50
2008,12,22,00,43,-0.50
2008,12,22,00,44,-0.40
2008,12,22,00,45,-0.40
2008,12,22,00,46,-0.40
2008,12,22,00,47,-0.40
2008,12,22,00,48,-0.40
2008,12,22,00,49,-0.40
2008,12,22,00,50,-0.40
2008,12,22,00,51,-0.40
2008,12,22,00,52,-0.40
2008,12,22,00,53,-0.40
2008,12,22,00,54,-0.40
2008,12,22,00,55,-0.40
2008,12,22,00,56,-0.40
2008,12,22,00,57,-0.40
2008,12,22,00,58,-0.40
2008,12,22,00,59,-0.40
2008,12,22,01,00,-0.40
2008,12,22,01,01,-0.40
2008,12,22,01,02,-0.40
2008,12,22,01,03,-0.40
2008,12,22,01,04,-0.40
2008,12,22,01,05,-0.40
2008,12,22,01,06,-0.40
2008,12,22,01,07,-0.50
2008,12,22,01,08,-0.50
2008,12,22,01,09,-0.50
2008,12,22,01,10,-0.50
2008,12,22,01,11,-0.50
2008,12,22,01,12,-0.50
2008,12,22,01,13,-0.50
2008,12,22,01,14,-0.50
2008,12,22,01,15,-0.50
2008,12,22,01,16,-0.50
2008,12,22,01,17,-0.60
2008,12,22,01,18,-0.60
2008,12,22,01,19,-0.60
2008,12,22,01,20,-0.60
2008,12,22,01,21,-0.60
2008,12,22,01,22,-0.60
2008,12,22,01,23,-0.60
2008,12,22,01,24,-0.60
2008,12,22,01,25,-0.60
2008,12,22,01,26,-0.60
2008,12,22,01,27,-0.60
2008,12,22,01,28,-0.60
2008,12,22,01,29,-0.60
2008,12,22,01,30,-0.70
2008,12,22,01,31,-0.70
2008,12,22,01,32,-0.70
2008,12,22,01,33,-0.70
2008,12,22,01,34,-0.70
2008,12,22,01,35,-0.70
2008,12,22,01,36,-0.70
2008,12,22,01,37,-0.70
2008,12,22,01,38,-0.70
2008,12,22,01,39,-0.70
2008,12,22,01,40,-0.70
2008,12,22,01,41,-0.70
2008,12,22,01,42,-0.70
2008,12,22,01,43,-0.70
2008,12,22,01,44,-0.70
2008,12,22,01,45,-0.70
2008,12,22,01,46,-0.70
2008,12,22,01,47,-0.70
2008,12,22,01,48,-0.70
2008,12,22,01,49,-0.70
2008,12,22,01,50,-0.70
2008,12,22,01,51,-0.70
2008,12,22,01,52,-0.70
2008,12,22,01,53,-0.70
2008,12,22,01,54,-0.70
2008,12,22,01,55,-0.70
2008,12,22,01,56,-0.70
2008,12,22,01,57,-0.70
2008,12,22,01,58,-0.70
2008,12,22,01,59,-0.70
2008,12,22,02,00,-0.70
2008,12,22,02,01,-0.70
2008,12,22,02,02,-0.70
2008,12,22,02,03,-0.70
2008,12,22,02,04,-0.70
2008,12,22,02,05,-0.70
2008,12,22,02,06,-0.70
2008,12,22,02,07,-0.70
2008,12,22,02,08,-0.70
2008,12,22,02,09,-0.70
2008,12,22,02,10,-0.70
2008,12,22,02,11,-0.70
2008,12,22,02,12,-0.70
2008,12,22,02,13,-0.70
2008,12,22,02,14,-0.70
2008,12,22,02,15,-0.70
2008,12,22,02,16,-0.70
2008,12,22,02,17,-0.70
2008,12,22,02,18,-0.70
2008,12,22,02,19,-0.70
2008,12,22,02,20,-0.70
2008,12,22,02,21,-0.70
2008,12,22,02,22,-0.70
2008,12,22,02,23,-0.70
2008,12,22,02,24,-0.70
2008,12,22,02,25,-0.70
2008,12,22,02,26,-0.70
2008,12,22,02,27,-0.70
2008,12,22,02,28,-0.70
2008,12,22,02,29,-0.70
2008,12,22,02,30,-0.70
2008,12,22,02,31,-0.70
2008,12,22,02,32,-0.80
2008,12,22,02,33,-0.80
2008,12,22,02,34,-0.80
2008,12,22,02,35,-0.80
2008,12,22,02,36,-0.80
2008,12,22,02,37,-0.80
2008,12,22,02,38,-0.80
2008,12,22,02,39,-0.80
2008,12,22,02,40,-0.80
2008,12,22,02,41,-0.80
2008,12,22,02,42,-0.80
2008,12,22,02,43,-0.80
2008,12,22,02,44,-0.80
2008,12,22,02,45,-0.80
2008,12,22,02,46,-0.80
2008,12,22,02,47,-0.80
2008,12,22,02,48,-0.80
